QPF
0.00 0.00 0.00 0.00 0.00 0.00 0.00 0.00 0.00 0.00 0.00 0.01 0.02 0.02 0.01 0.01 0.00 0.00 0.00 0.00 0.00 0.01 0.02 0.03 0.05 0.06 0.07 0.06 0.02 0.00 0.00 0.00 0.00 0.00 0.00 0.00 0.00 0.00 0.00 0.00 0.00 0.00 0.00
0.00 0.00 0.00 0.00 0.00 0.00 0.00 0.00 0.00 0.00 0.00 0.01 0.02 0.03 0.02 0.01 0.00 0.00 0.00 0.00 0.00 0.00 0.01 0.02 0.04 0.06 0.06 0.04 0.01 0.00 0.00 0.00 0.00 0.00 0.00 0.00 0.00 0.00 0.00 0.00 0.00 0.00 0.00
0.00 0.00 0.00 0.00 0.00 0.00 0.00 0.00 0.00 0.00 0.00 0.01 0.02 0.02 0.02 0.01 0.00 0.00 0.00 0.00 0.00 0.00 0.00 0.00 0.00 0.01 0.02 0.01 0.00 0.00 0.00 0.00 0.00 0.00 0.00 0.00 0.00 0.00 0.00 0.00 0.00 0.00 0.00
0.00 0.00 0.00 0.00 0.00 0.00 0.00 0.00 0.00 0.00 0.00 0.01 0.01 0.01 0.01 0.00 0.00 0.00 0.00 0.00 0.00 0.00 0.00 0.00 0.00 0.00 0.00 0.00 0.00 0.00 0.00 0.00 0.00 0.00 0.00 0.00 0.00 0.00 0.00 0.00 0.00 0.00 0.00
0.00 0.00 0.00 0.00 0.00 0.00 0.00 0.00 0.00 0.00 0.00 0.00 0.01 0.00 0.00 0.00 0.00 0.00 0.00 0.00 0.00 0.00 0.00 0.00 0.00 0.00 0.00 0.00 0.00 0.00 0.00 0.00 0.00 0.00 0.00 0.00 0.00 0.00 0.00 0.00 0.00 0.00 0.00
0.00 0.00 0.00 0.00 0.00 0.00 0.00 0.00 0.00 0.00 0.00 0.00 0.00 0.00 0.00 0.00 0.00 0.00 0.00 0.00 0.00 0.00 0.00 0.00 0.00 0.00 0.00 0.00 0.00 0.00 0.00 0.00 0.00 0.00 0.00 0.00 0.00 0.00 0.00 0.00 0.00 0.00 0.00
0.00 0.00 0.00 0.00 0.01 0.00 0.00 0.00 0.00 0.00 0.00 0.00 0.00 0.00 0.00 0.00 0.01 0.01 0.01 0.00 0.00 0.00 0.00 0.00 0.00 0.00 0.00 0.00 0.00 0.00 0.00 0.00 0.00 0.00 0.01 0.01 0.00 0.00 0.00 0.01 0.02 0.01 0.01
0.00 0.00 0.00 0.00 0.01 0.01 0.00 0.00 0.00 0.00 0.00 0.00 0.00 0.00 0.00 0.00 0.00 0.01 0.01 0.00 0.00 0.00 0.00 0.00 0.00 0.00 0.01 0.01 0.01 0.00 0.00 0.00 0.00 0.01 0.01 0.01 0.00 0.00 0.01 0.02 0.02 0.02 0.03
0.00 0.00 0.00 0.00 0.01 0.01 0.01 0.00 0.00 0.00 0.00 0.00 0.00 0.00 0.00 0.00 0.00 0.01 0.01 0.00 0.00 0.00 0.00 0.01 0.01 0.01 0.01 0.00 0.00 0.00 0.00 0.00 0.00 0.01 0.00 0.00 0.00 0.00 0.01 0.01 0.01 0.01 0.02
0.00 0.00 0.00 0.00 0.00 0.01 0.01 0.00 0.00 0.00 0.00 0.00 0.00 0.00 0.00 0.00 0.00 0.00 0.00 0.00 0.00 0.00 0.01 0.01 0.00 0.00 0.00 0.00 0.00 0.00 0.00 0.00 0.00 0.00 0.00 0.00 0.00 0.00 0.01 0.01 0.01 0.01 0.01
0.00 0.00 0.00 0.00 0.00 0.00 0.01 0.00 0.00 0.00 0.00 0.00 0.00 0.00 0.00 0.00 0.00 0.00 0.00 0.00 0.00 0.00 0.00 0.00 0.00 0.00 0.00 0.00 0.00 0.00 0.00 0.00 0.00 0.00 0.00 0.00 0.00 0.01 0.01 0.00 0.00 0.00 0.00
0.00 0.00 0.00 0.00 0.00 0.00 0.00 0.00 0.00 0.00 0.00 0.00 0.00 0.00 0.00 0.00 0.00 0.00 0.00 0.00 0.00 0.00 0.00 0.00 0.00 0.00 0.00 0.00 0.00 0.00 0.00 0.00 0.00 0.00 0.00 0.00 0.00 0.00 0.00 0.00 0.00 0.00 0.00
0.00 0.00 0.00 0.00 0.00 0.00 0.00 0.00 0.00 0.00 0.00 0.00 0.00 0.00 0.00 0.00 0.00 0.00 0.00 0.00 0.00 0.00 0.00 0.00 0.00 0.00 0.00 0.00 0.00 0.00 0.00 0.00 0.00 0.00 0.00 0.00 0.00 0.00 0.00 0.00 0.00 0.00 0.00
0.00 0.00 0.00 0.00 0.00 0.00 0.00 0.00 0.00 0.00 0.00 0.00 0.00 0.00 0.00 0.00 0.00 0.00 0.00 0.00 0.00 0.00 0.00 0.00 0.00 0.00 0.00 0.00 0.00 0.00 0.00 0.00 0.00 0.00 0.00 0.00 0.00 0.00 0.00 0.00 0.00 0.00 0.00
0.00 0.00 0.00 0.00 0.00 0.00 0.00 0.00 0.00 0.00 0.00 0.00 0.00 0.00 0.00 0.00 0.00 0.00 0.00 0.00 0.00 0.00 0.00 0.00 0.00 0.00 0.00 0.00 0.00 0.00 0.00 0.00 0.00 0.00 0.00 0.00 0.00 0.00 0.00 0.00 0.00 0.00 0.00
0.00 0.00 0.00 0.00 0.00 0.00 0.00 0.00 0.00 0.00 0.00 0.00 0.00 0.00 0.00 0.00 0.00 0.00 0.00 0.00 0.00 0.00 0.00 0.00 0.00 0.00 0.00 0.00 0.00 0.00 0.00 0.00 0.00 0.00 0.00 0.00 0.00 0.00 0.00 0.00 0.00 0.00 0.00
0.00 0.00 0.00 0.00 0.00 0.00 0.00 0.00 0.00 0.00 0.00 0.00 0.00 0.00 0.00 0.00 0.00 0.00 0.00 0.00 0.00 0.00 0.00 0.00 0.00 0.00 0.00 0.00 0.00 0.00 0.00 0.00 0.00 0.00 0.00 0.00 0.00 0.00 0.00 0.00 0.00 0.00 0.00
0.00 0.00 0.00 0.00 0.00 0.00 0.00 0.00 0.00 0.00 0.00 0.00 0.00 0.00 0.00 0.00 0.00 0.00 0.00 0.00 0.00 0.00 0.00 0.00 0.00 0.00 0.00 0.00 0.00 0.00 0.00 0.00 0.00 0.00 0.00 0.00 0.00 0.00 0.00 0.00 0.00 0.00 0.00
0.00 0.00 0.00 0.00 0.00 0.00 0.00 0.00 0.00 0.00 0.00 0.00 0.00 0.00 0.00 0.00 0.00 0.00 0.00 0.00 0.00 0.00 0.00 0.00 0.00 0.00 0.00 0.00 0.00 0.00 0.00 0.00 0.00 0.00 0.00 0.00 0.00 0.00 0.00 0.00 0.00 0.00 0.00
0.00 0.00 0.00 0.00 0.00 0.00 0.00 0.00 0.00 0.01 0.01 0.01 0.01 0.00 0.00 0.00 0.00 0.00 0.00 0.00 0.00 0.00 0.00 0.00 0.00 0.00 0.00 0.00 0.00 0.00 0.00 0.00 0.00 0.00 0.00 0.00 0.00 0.00 0.00 0.00 0.00 0.00 0.00
0.00 0.00 0.00 0.00 0.00 0.00 0.00 0.00 0.01 0.01 0.02 0.03 0.02 0.01 0.01 0.01 0.01 0.01 0.00 0.00 0.00 0.00 0.00 0.00 0.00 0.00 0.00 0.00 0.00 0.00 0.00 0.00 0.00 0.00 0.00 0.00 0.00 0.00 0.00 0.00 0.00 0.00 0.00
0.00 0.00 0.00 0.00 0.00 0.00 0.00 0.00 0.01 0.01 0.02 0.03 0.03 0.03 0.03 0.03 0.03 0.02 0.01 0.00 0.00 0.00 0.00 0.00 0.00 0.00 0.00 0.00 0.00 0.00 0.00 0.00 0.00 0.00 0.00 0.00 0.00 0.00 0.00 0.00 0.00 0.00 0.00
0.00 0.00 0.00 0.00 0.00 0.00 0.00 0.00 0.01 0.01 0.01 0.02 0.02 0.03 0.04 0.04 0.05 0.04 0.02 0.01 0.00 0.00 0.00 0.00 0.00 0.00 0.00 0.00 0.00 0.00 0.00 0.00 0.00 0.00 0.00 0.00 0.00 0.00 0.00 0.00 0.00 0.00 0.00
0.00 0.00 0.00 0.00 0.00 0.00 0.00 0.00 0.00 0.00 0.01 0.02 0.03 0.04 0.05 0.04 0.04 0.04 0.03 0.01 0.00 0.00 0.00 0.00 0.00 0.00 0.00 0.00 0.00 0.00 0.00 0.00 0.00 0.00 0.00 0.00 0.00 0.00 0.00 0.00 0.00 0.00 0.00
0.00 0.00 0.00 0.00 0.00 0.00 0.00 0.00 0.00 0.00 0.01 0.02 0.02 0.04 0.04 0.03 0.02 0.02 0.02 0.01 0.00 0.00 0.00 0.00 0.00 0.00 0.00 0.00 0.00 0.00 0.00 0.00 0.00 0.00 0.00 0.00 0.00 0.00 0.00 0.00 0.00 0.00 0.00
0.00 0.00 0.00 0.00 0.00 0.00 0.01 0.00 0.00 0.00 0.00 0.01 0.02 0.03 0.03 0.03 0.02 0.01 0.01 0.01 0.00 0.00 0.00 0.00 0.00 0.00 0.00 0.00 0.00 0.00 0.00 0.00 0.00 0.00 0.00 0.00 0.00 0.00 0.00 0.00 0.00 0.00 0.00
MSLP
1009.98 1010.13 1010.36 1010.68 1011.07 1011.50 1011.92 1012.29 1012.59 1012.82 1013.00 1013.18 1013.37 1013.61 1013.90 1014.23 1014.55 1014.84 1015.05 1015.18 1015.23 1015.23 1015.23 1015.25 1015.33 1015.48 1015.70 1015.94 1016.18 1016.39 1016.54 1016.64 1016.69 1016.72 1016.75 1016.79 1016.85 1016.91 1016.97 1017.01 1017.01 1016.97 1016.91
1009.82 1010.03 1010.33 1010.74 1011.21 1011.69 1012.14 1012.52 1012.82 1013.04 1013.21 1013.39 1013.60 1013.86 1014.18 1014.54 1014.88 1015.18 1015.39 1015.51 1015.56 1015.55 1015.54 1015.57 1015.65 1015.79 1015.98 1016.19 1016.39 1016.55 1016.65 1016.71 1016.74 1016.76 1016.79 1016.85 1016.91 1016.99 1017.04 1017.06 1017.04 1016.99 1016.91
1009.57 1009.86 1010.25 1010.75 1011.30 1011.85 1012.34 1012.74 1013.04 1013.25 1013.42 1013.59 1013.81 1014.10 1014.44 1014.81 1015.16 1015.46 1015.67 1015.79 1015.83 1015.83 1015.83 1015.86 1015.94 1016.08 1016.24 1016.41 1016.55 1016.65 1016.70 1016.72 1016.72 1016.74 1016.77 1016.84 1016.92 1017.00 1017.06 1017.07 1017.04 1016.97 1016.88
1009.27 1009.64 1010.14 1010.74 1011.38 1011.99 1012.52 1012.94 1013.24 1013.44 1013.60 1013.78 1014.00 1014.28 1014.63 1015.00 1015.35 1015.65 1015.85 1015.97 1016.02 1016.04 1016.06 1016.10 1016.19 1016.32 1016.46 1016.59 1016.68 1016.73 1016.72 1016.70 1016.67 1016.68 1016.71 1016.79 1016.88 1016.97 1017.02 1017.04 1017.00 1016.93 1016.84
1008.99 1009.44 1010.03 1010.72 1011.44 1012.11 1012.67 1013.11 1013.41 1013.61 1013.76 1013.92 1014.13 1014.41 1014.75 1015.11 1015.45 1015.73 1015.93 1016.06 1016.12 1016.16 1016.21 1016.29 1016.40 1016.53 1016.66 1016.75 1016.79 1016.78 1016.74 1016.67 1016.62 1016.61 1016.65 1016.72 1016.82 1016.90 1016.96 1016.97 1016.93 1016.86 1016.78
1008.77 1009.29 1009.96 1010.72 1011.50 1012.21 1012.80 1013.24 1013.53 1013.72 1013.87 1014.02 1014.22 1014.49 1014.81 1015.15 1015.47 1015.73 1015.93 1016.06 1016.15 1016.22 1016.31 1016.42 1016.56 1016.70 1016.82 1016.89 1016.89 1016.84 1016.75 1016.66 1016.59 1016.57 1016.60 1016.67 1016.76 1016.84 1016.89 1016.89 1016.85 1016.78 1016.72
1008.67 1009.23 1009.95 1010.75 1011.55 1012.28 1012.88 1013.31 1013.60 1013.79 1013.93 1014.08 1014.28 1014.53 1014.84 1015.15 1015.45 1015.70 1015.89 1016.02 1016.13 1016.24 1016.37 1016.52 1016.69 1016.84 1016.95 1017.01 1016.99 1016.90 1016.79 1016.67 1016.59 1016.56 1016.58 1016.65 1016.73 1016.80 1016.84 1016.83 1016.79 1016.73 1016.68
1008.68 1009.26 1009.99 1010.79 1011.60 1012.32 1012.90 1013.32 1013.61 1013.80 1013.95 1014.11 1014.31 1014.57 1014.86 1015.16 1015.44 1015.67 1015.85 1016.00 1016.12 1016.26 1016.42 1016.60 1016.79 1016.96 1017.07 1017.10 1017.07 1016.97 1016.83 1016.71 1016.62 1016.59 1016.62 1016.69 1016.76 1016.82 1016.85 1016.83 1016.79 1016.73 1016.69
1008.78 1009.34 1010.05 1010.83 1011.60 1012.29 1012.84 1013.25 1013.54 1013.74 1013.92 1014.10 1014.33 1014.61 1014.91 1015.20 1015.47 1015.69 1015.86 1016.01 1016.15 1016.30 1016.48 1016.68 1016.88 1017.05 1017.15 1017.18 1017.13 1017.02 1016.89 1016.77 1016.70 1016.68 1016.72 1016.80 1016.88 1016.94 1016.96 1016.93 1016.88 1016.83 1016.80
1008.90 1009.43 1010.09 1010.82 1011.54 1012.17 1012.69 1013.09 1013.38 1013.61 1013.83 1014.06 1014.33 1014.64 1014.96 1015.26 1015.53 1015.75 1015.92 1016.06 1016.20 1016.36 1016.55 1016.75 1016.95 1017.12 1017.21 1017.23 1017.18 1017.08 1016.96 1016.86 1016.81 1016.83 1016.90 1017.00 1017.09 1017.16 1017.18 1017.16 1017.10 1017.05 1017.01
1008.98 1009.47 1010.07 1010.73 1011.38 1011.96 1012.44 1012.83 1013.14 1013.40 1013.67 1013.96 1014.29 1014.64 1015.00 1015.32 1015.60 1015.82 1015.99 1016.13 1016.28 1016.44 1016.62 1016.82 1017.01 1017.17 1017.25 1017.27 1017.22 1017.13 1017.04 1016.98 1016.97 1017.03 1017.14 1017.28 1017.40 1017.49 1017.52 1017.51 1017.45 1017.39 1017.35
1008.97 1009.41 1009.95 1010.54 1011.12 1011.64 1012.09 1012.47 1012.80 1013.11 1013.43 1013.78 1014.17 1014.57 1014.97 1015.32 1015.62 1015.85 1016.03 1016.19 1016.34 1016.50 1016.69 1016.88 1017.06 1017.20 1017.28 1017.30 1017.26 1017.20 1017.14 1017.12 1017.17 1017.28 1017.44 1017.62 1017.78 1017.90 1017.96 1017.95 1017.90 1017.83 1017.77
1008.82 1009.21 1009.70 1010.23 1010.75 1011.23 1011.65 1012.03 1012.38 1012.72 1013.10 1013.51 1013.95 1014.40 1014.83 1015.21 1015.54 1015.80 1016.01 1016.19 1016.36 1016.54 1016.73 1016.92 1017.10 1017.23 1017.31 1017.34 1017.32 1017.29 1017.27 1017.30 1017.39 1017.55 1017.76 1017.98 1018.19 1018.35 1018.43 1018.45 1018.41 1018.33 1018.25
1008.54 1008.90 1009.34 1009.82 1010.29 1010.74 1011.14 1011.52 1011.89 1012.27 1012.68 1013.13 1013.61 1014.09 1014.56 1014.98 1015.34 1015.65 1015.90 1016.12 1016.33 1016.54 1016.75 1016.96 1017.14 1017.28 1017.37 1017.41 1017.41 1017.41 1017.42 1017.49 1017.63 1017.83 1018.08 1018.34 1018.58 1018.77 1018.88 1018.92 1018.89 1018.82 1018.72
1008.14 1008.47 1008.87 1009.31 1009.76 1010.19 1010.59 1010.98 1011.36 1011.77 1012.21 1012.68 1013.18 1013.68 1014.17 1014.62 1015.03 1015.39 1015.70 1015.99 1016.26 1016.52 1016.77 1017.01 1017.21 1017.36 1017.46 1017.52 1017.54 1017.56 1017.61 1017.70 1017.86 1018.08 1018.35 1018.63 1018.89 1019.10 1019.24 1019.30 1019.30 1019.23 1019.12
1007.66 1007.96 1008.33 1008.75 1009.17 1009.60 1010.01 1010.42 1010.83 1011.25 1011.71 1012.18 1012.68 1013.19 1013.69 1014.18 1014.63 1015.06 1015.45 1015.82 1016.17 1016.51 1016.82 1017.09 1017.32 1017.49 1017.61 1017.68 1017.71 1017.75 1017.81 1017.91 1018.07 1018.29 1018.54 1018.82 1019.08 1019.29 1019.45 1019.54 1019.56 1019.51 1019.41
1007.14 1007.40 1007.74 1008.13 1008.56 1008.99 1009.44 1009.87 1010.31 1010.76 1011.22 1011.70 1012.19 1012.69 1013.20 1013.71 1014.22 1014.71 1015.20 1015.66 1016.11 1016.53 1016.90 1017.22 1017.48 1017.67 1017.80 1017.88 1017.92 1017.96 1018.02 1018.11 1018.25 1018.44 1018.66 1018.90 1019.14 1019.34 1019.51 1019.61 1019.65 1019.63 1019.56
1006.60 1006.81 1007.11 1007.48 1007.91 1008.38 1008.86 1009.35 1009.84 1010.32 1010.79 1011.26 1011.74 1012.24 1012.75 1013.29 1013.84 1014.41 1014.99 1015.55 1016.09 1016.59 1017.03 1017.40 1017.69 1017.89 1018.03 1018.10 1018.15 1018.18 1018.22 1018.29 1018.39 1018.54 1018.71 1018.89 1019.09 1019.26 1019.42 1019.53 1019.60 1019.62 1019.59
1006.05 1006.20 1006.45 1006.80 1007.24 1007.75 1008.29 1008.85 1009.40 1009.93 1010.43 1010.92 1011.40 1011.88 1012.40 1012.96 1013.55 1014.19 1014.84 1015.50 1016.13 1016.70 1017.20 1017.60 1017.91 1018.12 1018.26 1018.33 1018.37 1018.39 1018.42 1018.46 1018.53 1018.61 1018.72 1018.84 1018.98 1019.11 1019.24 1019.35 1019.44 1019.50 1019.51
1005.51 1005.57 1005.76 1006.09 1006.55 1007.10 1007.72 1008.37 1009.01 1009.61 1010.16 1010.67 1011.16 1011.65 1012.17 1012.73 1013.36 1014.05 1014.77 1015.50 1016.19 1016.82 1017.36 1017.79 1018.11 1018.33 1018.46 1018.54 1018.57 1018.59 1018.61 1018.64 1018.67 1018.70 1018.75 1018.80 1018.87 1018.94 1019.03 1019.12 1019.22 1019.31 1019.37
1004.96 1004.94 1005.06 1005.36 1005.83 1006.43 1007.14 1007.89 1008.63 1009.33 1009.95 1010.51 1011.02 1011.52 1012.04 1012.62 1013.27 1013.98 1014.75 1015.52 1016.26 1016.93 1017.50 1017.94 1018.27 1018.49 1018.62 1018.70 1018.75 1018.78 1018.81 1018.83 1018.84 1018.85 1018.84 1018.83 1018.82 1018.83 1018.86 1018.92 1019.00 1019.10 1019.19
1004.42 1004.31 1004.36 1004.62 1005.10 1005.75 1006.55 1007.41 1008.27 1009.07 1009.78 1010.40 1010.95 1011.46 1011.99 1012.57 1013.23 1013.96 1014.74 1015.53 1016.30 1016.99 1017.57 1018.02 1018.35 1018.58 1018.73 1018.83 1018.90 1018.96 1019.02 1019.06 1019.08 1019.07 1019.03 1018.96 1018.89 1018.82 1018.78 1018.78 1018.82 1018.90 1018.99
1003.89 1003.70 1003.68 1003.90 1004.37 1005.07 1005.95 1006.91 1007.89 1008.80 1009.61 1010.30 1010.90 1011.44 1011.98 1012.55 1013.20 1013.93 1014.71 1015.51 1016.27 1016.97 1017.55 1018.01 1018.35 1018.59 1018.77 1018.91 1019.03 1019.14 1019.25 1019.34 1019.39 1019.38 1019.32 1019.21 1019.07 1018.93 1018.80 1018.72 1018.70 1018.73 1018.79
1003.41 1003.14 1003.05 1003.23 1003.69 1004.42 1005.36 1006.41 1007.49 1008.52 1009.42 1010.19 1010.83 1011.41 1011.95 1012.53 1013.16 1013.87 1014.64 1015.43 1016.19 1016.88 1017.46 1017.93 1018.29 1018.56 1018.77 1018.96 1019.14 1019.32 1019.50 1019.64 1019.74 1019.76 1019.70 1019.56 1019.36 1019.14 1018.93 1018.76 1018.64 1018.59 1018.60
1003.01 1002.67 1002.52 1002.65 1003.09 1003.83 1004.80 1005.92 1007.08 1008.19 1009.18 1010.02 1010.73 1011.33 1011.89 1012.47 1013.10 1013.79 1014.54 1015.31 1016.06 1016.74 1017.33 1017.81 1018.19 1018.49 1018.75 1018.99 1019.24 1019.49 1019.74 1019.95 1020.10 1020.15 1020.10 1019.95 1019.71 1019.42 1019.13 1018.86 1018.64 1018.49 1018.41
1002.70 1002.32 1002.11 1002.19 1002.59 1003.32 1004.30 1005.45 1006.67 1007.84 1008.90 1009.81 1010.56 1011.21 1011.80 1012.38 1013.00 1013.69 1014.42 1015.18 1015.92 1016.60 1017.19 1017.68 1018.09 1018.42 1018.73 1019.02 1019.32 1019.64 1019.95 1020.21 1020.41 1020.50 1020.47 1020.31 1020.05 1019.71 1019.34 1018.99 1018.67 1018.42 1018.24
Thickness
5769 5767 5763 5760 5756 5754 5752 5750 5748 5747 5745 5744 5742 5739 5737 5734 5732 5731 5730 5729 5728 5728 5728 5729 5729 5728 5726 5724 5721 5719 5718 5717 5716 5715 5715 5715 5715 5715 5714 5714 5714 5714 5713
5771 5765 5760 5756 5753 5750 5748 5746 5744 5742 5741 5740 5738 5735 5733 5731 5729 5727 5726 5725 5725 5724 5724 5723 5723 5722 5721 5719 5717 5716 5714 5713 5713 5713 5712 5711 5711 5711 5711 5710 5710 5710 5710
5768 5761 5757 5752 5749 5746 5743 5741 5739 5738 5737 5736 5734 5732 5729 5727 5725 5724 5722 5721 5720 5720 5719 5718 5717 5716 5715 5714 5713 5712 5712 5711 5711 5711 5711 5710 5707 5708 5708 5707 5707 5707 5707
5765 5758 5754 5749 5745 5742 5739 5737 5735 5734 5733 5731 5729 5727 5725 5723 5721 5719 5718 5716 5715 5715 5714 5713 5712 5711 5710 5709 5709 5709 5708 5708 5708 5709 5709 5709 5706 5704 5704 5703 5703 5703 5703
5761 5755 5750 5745 5741 5737 5734 5732 5730 5729 5728 5726 5725 5723 5721 5719 5717 5715 5713 5711 5710 5709 5709 5708 5707 5706 5706 5705 5705 5705 5704 5704 5705 5705 5706 5705 5702 5700 5700 5699 5699 5699 5699
5758 5752 5744 5741 5737 5733 5730 5728 5726 5724 5723 5721 5720 5718 5716 5714 5712 5710 5708 5707 5706 5705 5705 5704 5704 5702 5701 5701 5701 5701 5700 5701 5702 5703 5703 5701 5698 5697 5696 5696 5695 5695 5696
5755 5747 5740 5737 5733 5730 5726 5724 5721 5719 5717 5716 5714 5713 5711 5710 5708 5706 5704 5703 5702 5701 5701 5700 5700 5699 5698 5697 5697 5697 5697 5697 5699 5700 5699 5696 5693 5692 5692 5692 5692 5692 5692
5751 5743 5736 5732 5729 5726 5723 5720 5717 5715 5713 5711 5709 5708 5707 5705 5704 5703 5701 5699 5698 5697 5697 5696 5695 5694 5694 5693 5693 5693 5694 5694 5695 5696 5695 5690 5689 5688 5688 5687 5687 5688 5687
5747 5740 5732 5729 5726 5723 5721 5717 5714 5712 5709 5707 5705 5704 5702 5701 5701 5700 5697 5696 5694 5694 5693 5692 5691 5690 5690 5689 5689 5690 5690 5691 5691 5691 5688 5684 5683 5683 5682 5681 5681 5681 5680
5742 5737 5731 5727 5723 5720 5717 5715 5712 5709 5706 5704 5702 5700 5698 5697 5696 5695 5693 5692 5690 5690 5689 5688 5687 5686 5686 5686 5686 5686 5686 5686 5686 5684 5680 5677 5676 5675 5674 5673 5673 5673 5672
5734 5733 5729 5726 5722 5718 5715 5712 5709 5706 5703 5701 5698 5697 5695 5694 5692 5690 5689 5687 5686 5685 5684 5683 5683 5682 5682 5681 5681 5681 5681 5681 5681 5677 5673 5671 5670 5668 5667 5665 5665 5664 5663
5725 5728 5728 5726 5721 5718 5714 5708 5705 5703 5700 5698 5696 5694 5693 5692 5690 5687 5685 5683 5682 5681 5680 5679 5679 5678 5677 5676 5676 5675 5675 5675 5674 5670 5665 5665 5664 5662 5660 5658 5657 5656 5655
5723 5724 5726 5724 5720 5716 5712 5706 5704 5701 5698 5696 5695 5693 5691 5690 5687 5684 5681 5678 5677 5676 5675 5674 5674 5673 5673 5671 5670 5669 5668 5667 5665 5661 5658 5657 5656 5654 5652 5650 5649 5648 5646
5721 5721 5721 5720 5717 5713 5710 5706 5703 5700 5697 5695 5694 5692 5690 5687 5685 5682 5679 5675 5673 5671 5670 5670 5669 5668 5667 5665 5664 5662 5661 5660 5658 5653 5650 5649 5647 5645 5643 5641 5640 5638 5637
5719 5719 5718 5716 5713 5710 5706 5704 5702 5699 5696 5694 5693 5690 5688 5684 5681 5679 5676 5673 5670 5667 5665 5664 5663 5661 5659 5658 5656 5654 5653 5652 5651 5646 5642 5640 5637 5635 5634 5632 5630 5629 5628
5717 5717 5717 5714 5710 5707 5703 5701 5700 5698 5695 5692 5689 5686 5684 5681 5677 5674 5670 5667 5664 5661 5659 5657 5655 5653 5651 5649 5648 5646 5645 5644 5642 5639 5634 5631 5628 5626 5624 5622 5621 5619 5619
5716 5716 5715 5713 5709 5705 5702 5699 5697 5696 5693 5690 5686 5682 5680 5677 5673 5669 5664 5660 5657 5654 5652 5650 5647 5645 5643 5642 5640 5639 5637 5635 5633 5631 5628 5623 5620 5617 5615 5613 5611 5610 5609
5715 5714 5715 5714 5709 5705 5700 5697 5695 5694 5692 5689 5685 5680 5677 5674 5669 5664 5658 5654 5651 5648 5644 5641 5639 5636 5634 5632 5631 5631 5629 5627 5625 5623 5620 5616 5613 5609 5606 5604 5602 5601 5599
5713 5713 5712 5712 5710 5705 5700 5695 5693 5691 5690 5688 5683 5679 5674 5670 5665 5659 5653 5648 5645 5640 5636 5634 5629 5627 5624 5622 5623 5623 5621 5619 5617 5614 5612 5609 5605 5602 5599 5596 5593 5591 5589
5712 5713 5711 5710 5709 5705 5699 5693 5689 5688 5687 5685 5681 5677 5671 5666 5660 5654 5648 5643 5639 5633 5628 5624 5620 5617 5615 5614 5615 5615 5613 5612 5609 5606 5603 5600 5597 5594 5591 5588 5585 5582 5578
5707 5708 5708 5707 5707 5703 5696 5691 5686 5682 5681 5679 5677 5674 5668 5661 5655 5648 5643 5637 5632 5626 5621 5617 5613 5608 5605 5604 5604 5603 5603 5603 5600 5598 5595 5591 5588 5585 5582 5578 5574 5571 5568
5700 5702 5704 5703 5703 5702 5697 5692 5685 5679 5674 5673 5671 5667 5662 5655 5648 5642 5637 5631 5626 5620 5614 5610 5606 5600 5595 5594 5591 5590 5588 5588 5588 5588 5584 5581 5577 5574 5571 5567 5563 5560 5556
5693 5695 5698 5699 5698 5697 5694 5686 5677 5669 5664 5660 5658 5655 5652 5647 5641 5636 5630 5625 5619 5613 5606 5601 5597 5593 5586 5583 5580 5578 5573 5571 5569 5573 5573 5570 5566 5561 5558 5555 5551 5548 5544
5687 5690 5691 5692 5691 5690 5688 5682 5674 5667 5659 5655 5651 5646 5641 5637 5633 5628 5623 5617 5611 5605 5599 5594 5589 5585 5580 5574 5570 5567 5563 5559 5553 5551 5555 5556 5554 5549 5545 5543 5539 5535 5531
5679 5681 5683 5684 5684 5683 5682 5678 5670 5662 5656 5648 5642 5636 5631 5627 5624 5621 5616 5610 5603 5597 5591 5586 5580 5575 5571 5566 5561 5557 5553 5548 5544 5537 5536 5538 5538 5535 5533 5530 5528 5525 5521
5667 5669 5672 5675 5675 5674 5672 5669 5663 5655 5650 5642 5635 5628 5623 5619 5616 5612 5608 5602 5595 5588 5582 5577 5571 5565 5561 5555 5550 5546 5540 5535 5530 5526 5523 5523 5522 5522 5520 5517 5516 5513 5510